EW4089 Weather Reports


time (UTC)temp
F
wind
direction
speed
knots
gust
knots
rain 1hr
in
rain 24hr
in
rain mn
in
humidity
%
barometer
mb
20260506113901 77 99 2.6 6.1 0.00 0.00 0.00 97 1006.8
20260506113355 77 103 2.6 4.3 0.00 0.00 0.00 97 1006.8
20260506113116 77 103 1.7 4.3 0.00 0.00 0.00 97 1006.8
20260506112345 77 103 1.7 5.2 0.00 0.00 0.00 97 1006.8
20260506111841 77 103 1.7 5.2 0.00 0.00 0.00 97 1006.8
20260506111316 77 103 2.6 6.1 0.00 0.00 0.00 97 1006.8
20260506110806 77 103 2.6 6.1 0.00 0.00 0.00 97 1006.7
20260506110522 77 104 2.6 5.2 0.00 0.00 0.00 97 1006.7
20260506105727 77 103 2.6 5.2 0.00 0.00 0.00 97 1006.7
20260506105202 77 103 3.5 7.0 0.00 0.00 0.00 97 1006.5
20260506104657 77 103 4.3 7.8 0.00 0.00 0.00 97 1006.5
20260506104406 77 103 3.5 7.8 0.00 0.00 0.00 97 1006.5
20260506103637 77 101 3.5 6.1 0.00 0.00 0.00 97 1006.4
20260506103336 77 101 3.5 6.1 0.00 0.00 0.00 97 1006.5
20260506102834 77 101 3.5 6.1 0.00 0.00 0.00 97 1006.4
20260506102053 77 101 3.5 6.1 0.00 0.00 0.00 97 1006.5
20260506101553 77 101 2.6 6.1 0.00 0.00 0.00 97 1006.5
20260506101056 77 101 2.6 6.1 0.00 0.00 0.00 97 1006.4
20260506100549 77 101 3.5 7.0 0.00 0.00 0.00 97 1006.4
20260506100024 77 101 3.5 7.0 0.00 0.00 0.00 96 1006.3
20260506095737 77 101 3.5 5.2 0.00 0.00 0.00 96 1006.3
20260506094953 77 100 2.6 5.2 0.00 0.00 0.00 96 1006.4
20260506094449 77 100 2.6 5.2 0.00 0.00 0.00 96 1006.4
20260506094150 77 100 2.6 5.2 0.00 0.00 0.00 96 1006.4
20260506093416 78 100 2.6 5.2 0.00 0.00 0.00 96 1006.2
20260506092854 77 100 2.6 5.2 0.00 0.00 0.00 96 1006.3
20260506092344 77 100 3.5 6.1 0.00 0.00 0.00 96 1006.2
20260506091828 77 100 2.6 6.1 0.00 0.00 0.00 96 1006.2
20260506091324 77 100 1.7 5.2 0.00 0.00 0.00 96 1006.3
20260506091013 77 100 1.7 5.2 0.00 0.00 0.00 96 1006.4
20260506090224 77 100 2.6 6.1 0.00 0.00 0.00 96 1006.3
20260506085721 77 100 2.6 6.1 0.00 0.00 0.00 96 1006.2
20260506085207 77 100 2.6 4.3 0.00 0.00 0.00 96 1006.2
20260506084633 77 100 2.6 6.1 0.00 0.00 0.00 96 1006.3
20260506084102 77 100 2.6 6.1 0.00 0.00 0.00 96 1006.3
20260506083556 77 100 2.6 5.2 0.00 0.00 0.00 96 1006.4
20260506083051 77 100 3.5 7.0 0.00 0.00 0.00 96 1006.3
20260506082016 78 101 4.3 6.1 0.00 0.00 0.00 96 1006.1
20260506081455 78 101 4.3 7.8 0.00 0.00 0.00 96 1006.2
20260506080953 78 101 3.5 7.8 0.00 0.00 0.00 96 1006.2
20260506080441 78 101 3.5 7.8 0.00 0.00 0.00 96 1006.4
20260506073356 78 131 4.3 7.0 0.00 0.00 0.00 95 1006.7
20260506072854 78 140 4.3 8.7 0.00 0.00 0.00 95 1006.8
20260506072351 78 134 4.3 8.7 0.00 0.00 0.00 95 1006.8
20260506071847 78 150 4.3 8.7 0.00 0.00 0.00 95 1006.9
20260506071340 78 114 4.3 8.7 0.00 0.00 0.00 95 1007.1
20260506070837 78 114 5.2 8.7 0.00 0.00 0.00 95 1007.1
20260506070309 78 114 5.2 9.6 0.00 0.00 0.00 95 1007.1
20260506062040 78 158 4.3 7.8 0.00 0.00 0.00 94 1007.5
20260506061508 78 154 4.3 10.4 0.00 0.00 0.00 94 1007.6
20260506060443 78 151 6.1 13.0 0.00 0.00 0.00 94 1007.6
20260506060200 78 159 6.1 12.2 0.00 0.00 0.00 94 1007.6
20260506051319 79 140 7.0 12.2 0.00 0.00 0.00 93 1007.2
20260506050754 79 162 7.0 12.2 0.00 0.00 0.00 93 1007.0
20260506050233 79 145 7.0 12.2 0.00 0.00 0.00 93 1007.0
20260506044639 79 135 7.0 12.2 0.00 0.00 0.00 93 1007.0
20260506044108 78 149 6.1 12.2 0.00 0.00 0.00 94 1007.0
20260506043552 78 124 6.1 9.6 0.00 0.00 0.00 94 1007.1
20260506043049 78 140 6.1 11.3 0.00 0.00 0.00 94 1006.9
20260506042551 78 130 6.1 13.9 0.00 0.00 0.00 94 1006.7
20260506042027 78 130 6.1 13.9 0.00 0.00 0.00 94 1006.9
20260506041526 78 172 6.1 11.3 0.00 0.00 0.00 94 1006.8
20260506041017 78 132 6.1 12.2 0.00 0.00 0.00 94 1006.8
20260506040510 78 128 7.0 12.2 0.00 0.00 0.00 94 1006.8
20260506035946 78 157 7.0 12.2 0.00 0.00 0.00 94 1006.8
20260506035441 78 136 7.0 10.4 0.00 0.00 0.00 94 1006.7
20260506035208 78 136 6.1 10.4 0.00 0.00 0.00 94 1006.6
20260506034410 78 133 6.1 13.0 0.00 0.00 0.00 94 1006.6
20260506033903 78 127 7.0 13.0 0.00 0.00 0.00 94 1006.7
20260506033401 78 107 6.1 10.4 0.00 0.00 0.00 94 1006.6
20260506032827 78 115 6.1 10.4 0.00 0.00 0.00 94 1006.6
20260506032301 78 107 5.2 9.6 0.00 0.00 0.00 94 1006.6
20260506031742 78 171 5.2 9.6 0.00 0.00 0.00 94 1006.7
20260506031238 78 115 4.3 8.7 0.00 0.00 0.00 94 1006.7
20260506030731 78 132 5.2 8.7 0.00 0.00 0.00 94 1006.7
20260506030208 78 121 5.2 8.7 0.00 0.00 0.00 94 1006.6
20260506025704 78 138 5.2 9.6 0.00 0.00 0.00 94 1006.5
20260506025207 78 123 5.2 9.6 0.00 0.00 0.00 94 1006.5
20260506024647 78 132 5.2 9.6 0.00 0.00 0.00 94 1006.5
20260506024402 78 127 4.3 8.7 0.00 0.00 0.00 94 1006.3
20260506023646 78 146 4.3 8.7 0.00 0.00 0.00 94 1006.3
20260506023123 78 118 4.3 9.6 0.00 0.00 0.00 94 1006.2
20260506022552 78 128 4.3 9.6 0.00 0.00 0.00 94 1006.1
20260506022032 78 119 4.3 10.4 0.00 0.00 0.00 93 1006.1
20260506021530 78 122 4.3 10.4 0.00 0.00 0.00 93 1006.1
20260506021256 78 153 4.3 7.8 0.00 0.00 0.00 93 1006.1
20260506020501 79 148 4.3 10.4 0.00 0.00 0.00 93 1006.0
20260506015931 79 167 4.3 10.4 0.00 0.00 0.00 93 1005.9
20260506015405 79 149 5.2 10.4 0.00 0.00 0.00 93 1005.8
20260506014901 79 161 5.2 10.4 0.00 0.00 0.00 93 1005.6
20260506014359 79 160 5.2 9.6 0.00 0.00 0.00 93 1005.6
20260506013857 79 121 5.2 10.4 0.00 0.00 0.00 93 1005.5
20260506013345 79 163 7.0 13.0 0.00 0.00 0.00 93 1005.5
20260506013054 79 169 6.1 13.0 0.00 0.00 0.00 93 1005.2
20260506012340 79 117 6.1 9.6 0.00 0.00 0.00 93 1005.1
20260506011813 79 132 6.1 13.9 0.00 0.00 0.00 93 1005.1
20260506011314 79 115 6.1 12.2 0.00 0.00 0.00 92 1004.9
20260506010802 79 113 6.1 10.4 0.00 0.00 0.00 92 1005.0
20260506010305 79 171 5.2 9.6 0.00 0.00 0.00 92 1005.0
20260506005739 79 128 6.1 11.3 0.00 0.00 0.00 92 1005.0
20260506005211 80 125 6.1 11.3 0.00 0.00 0.00 91 1004.9
20260506004702 80 152 6.1 10.4 0.00 0.00 0.00 91 1004.9
20260506004421 80 153 6.1 13.9 0.00 0.00 0.00 91 1004.9
20260506003629 80 148 7.0 13.0 0.00 0.00 0.00 91 1004.7
20260506003101 80 134 7.8 13.0 0.00 0.00 0.00 91 1004.7
20260506002600 80 166 7.0 13.0 0.00 0.00 0.00 91 1004.8
20260506002101 80 114 6.1 12.2 0.00 0.00 0.00 91 1004.8
20260506001557 80 119 6.1 12.2 0.00 0.00 0.00 90 1004.8
20260506001054 80 103 6.1 11.3 0.00 0.00 0.00 90 1004.8
20260506000550 80 136 7.0 13.0 0.00 0.00 0.00 90 1004.7
20260506000045 80 155 7.8 13.0 0.00 0.00 0.00 89 1004.7
20260505235535 81 121 8.7 17.4 0.00 0.00 0.00 89 1004.7
20260505235011 81 145 9.6 17.4 0.00 0.00 0.00 88 1004.8
20260505234500 81 144 8.7 13.9 0.00 0.00 0.00 89 1004.7
20260505234158 81 153 7.8 13.9 0.00 0.00 0.00 88 1004.5
20260505233405 81 122 7.0 13.9 0.00 0.00 0.00 88 1004.6
20260505232845 81 167 7.8 12.2 0.00 0.00 0.00 88 1004.7
20260505232346 81 170 9.6 20.0 0.00 0.00 0.00 88 1004.8
20260505231843 81 157 9.6 20.0 0.00 0.00 0.00 88 1004.8
20260505231345 81 123 9.6 16.5 0.00 0.00 0.00 88 1004.9
20260505230821 81 108 8.7 16.5 0.00 0.00 0.00 88 1004.8
20260505230251 81 148 9.6 18.2 0.00 0.00 0.00 88 1004.7
20260505225719 81 130 9.6 18.2 0.00 0.00 0.00 87 1004.8
20260505225215 81 117 8.7 15.6 0.00 0.00 0.00 87 1004.7
20260505224934 81 132 8.7 15.6 0.00 0.00 0.00 87 1004.8
20260505224437 81 132 9.6 15.6 0.00 0.00 0.00 87 1004.9
20260505223650 81 133 8.7 15.6 0.00 0.00 0.00 87 1004.9
20260505223143 81 157 8.7 14.8 0.00 0.00 0.00 87 1005.0
20260505222642 81 148 9.6 14.8 0.00 0.00 0.00 87 1005.1
20260505222135 81 142 8.7 18.2 0.00 0.00 0.00 87 1005.1
20260505221629 81 132 8.7 18.2 0.00 0.00 0.00 86 1005.1
20260505221101 82 147 9.6 16.5 0.00 0.00 0.00 86 1005.2
20260505220531 82 126 8.7 16.5 0.00 0.00 0.00 86 1005.1
20260505220030 82 123 8.7 17.4 0.00 0.00 0.00 86 1005.1
20260505215503 82 171 9.6 19.1 0.00 0.00 0.00 86 1005.2
20260505215005 81 144 9.6 19.1 0.00 0.00 0.00 86 1005.3
20260505214437 82 153 8.7 18.2 0.00 0.00 0.00 85 1005.4
20260505213937 82 122 8.7 16.5 0.00 0.00 0.00 85 1005.5
20260505213648 82 122 7.8 16.5 0.00 0.00 0.00 85 1005.4
20260505212901 82 129 8.7 20.0 0.00 0.00 0.00 85 1005.5
20260505212334 82 135 9.6 20.0 0.00 0.00 0.00 84 1005.6
20260505211835 82 134 9.6 15.6 0.00 0.00 0.00 84 1005.6
20260505211336 82 143 8.7 15.6 0.00 0.00 0.00 84 1005.6
20260505210839 82 153 8.7 14.8 0.00 0.00 0.00 83 1005.7
20260505210335 82 107 7.8 13.9 0.00 0.00 0.00 84 1005.8
20260505205825 83 179 7.0 13.9 0.00 0.00 0.00 83 1005.8
20260505205258 83 128 7.8 11.3 0.00 0.00 0.00 84 1005.8
20260505204739 82 112 7.8 14.8 0.00 0.00 0.00 85 1005.9
20260505204211 82 165 7.8 13.0 0.00 0.00 0.00 85 1006.0
20260505203917 82 115 7.8 13.0 0.00 0.00 0.00 85 1006.1
20260505203424 82 103 7.0 13.9 0.00 0.00 0.00 85 1006.3
20260505202629 82 148 7.0 13.9 0.00 0.00 0.00 85 1006.4
20260505202059 82 146 7.0 13.9 0.00 0.00 0.00 85 1006.3
20260505201026 82 158 7.0 13.0 0.00 0.00 0.00 86 1006.4
20260505200521 82 134 7.0 13.0 0.00 0.00 0.00 86 1006.4
20260505200009 82 190 7.8 13.0 0.00 0.00 0.00 86 1006.5
20260505195442 82 193 7.8 13.9 0.00 0.00 0.00 86 1006.7
20260505194909 82 154 7.8 13.9 0.00 0.00 0.00 86 1006.6
20260505194341 82 163 7.8 13.0 0.00 0.00 0.00 86 1006.8
20260505194057 81 159 7.0 13.0 0.00 0.00 0.00 87 1006.8
20260505193321 81 173 7.0 13.0 0.00 0.00 0.00 87 1006.8
20260505192250 81 175 7.8 19.1 0.00 0.00 0.00 87 1006.8
20260505192012 81 148 7.8 13.9 0.00 0.00 0.00 87 1006.9
20260505190710 82 189 7.8 15.6 0.00 0.00 0.00 85 1006.9
20260505190207 82 178 7.0 13.0 0.00 0.00 0.00 86 1007.0
20260505185637 82 159 7.0 13.0 0.00 0.00 0.00 86 1007.0
20260505185113 82 207 8.7 15.6 0.00 0.00 0.00 86 1007.0
20260505184544 82 171 8.7 15.6 0.00 0.00 0.00 85 1007.0
20260505184041 82 167 7.8 15.6 0.00 0.00 0.00 85 1007.1
20260505183537 82 150 7.8 15.6 0.00 0.00 0.00 85 1007.1
20260505183012 82 124 7.8 13.9 0.00 0.00 0.00 86 1007.2
20260505182505 81 182 7.0 13.0 0.00 0.00 0.00 86 1007.2
20260505182001 81 189 7.8 15.6 0.00 0.00 0.00 86 1007.3
20260505181430 81 141 7.8 15.6 0.00 0.00 0.00 86 1007.2
20260505180931 82 145 7.8 13.9 0.00 0.00 0.00 86 1007.4
20260505180428 82 172 7.8 13.9 0.00 0.00 0.00 86 1007.3
20260505180142 81 197 7.0 13.9 0.00 0.00 0.00 87 1007.4
20260505175641 81 175 7.8 13.9 0.00 0.00 0.00 87 1007.4
20260505174405 81 190 7.8 14.8 0.00 0.00 0.00 87 1007.5
20260505173859 80 183 7.0 14.8 0.00 0.00 0.00 87 1007.5
20260505173348 80 196 7.0 12.2 0.00 0.00 0.00 88 1007.6
20260505173035 80 169 7.8 12.2 0.00 0.00 0.00 88 1007.6
20260505172250 80 182 8.7 13.9 0.00 0.00 0.00 87 1007.5
20260505171731 80 155 8.7 13.9 0.00 0.00 0.00 87 1007.5
20260505171231 80 138 7.8 13.9 0.00 0.00 0.00 87 1007.7
20260505170713 80 147 7.0 10.4 0.00 0.00 0.00 88 1007.7
20260505170429 80 153 7.8 13.0 0.00 0.00 0.00 88 1007.7
20260505165657 80 153 9.6 17.4 0.00 0.00 0.00 88 1007.8
20260505165401 80 163 10.4 17.4 0.00 0.00 0.00 88 1007.8
20260505164638 80 209 9.6 15.6 0.00 0.00 0.00 88 1007.8
20260505164128 80 182 8.7 15.6 0.00 0.00 0.00 88 1007.8
20260505163628 80 165 8.7 18.2 0.00 0.00 0.00 88 1007.7
20260505163326 80 199 7.8 18.2 0.00 0.00 0.00 88 1007.7
20260505162553 80 155 7.0 10.4 0.00 0.00 0.00 90 1007.7
20260505162025 80 190 6.1 11.3 0.00 0.00 0.00 91 1007.7
20260505161731 79 183 6.1 11.3 0.00 0.00 0.00 92 1007.6
20260505160933 78 164 7.0 10.4 0.00 0.00 0.00 92 1007.7
20260505160415 78 165 7.8 7.8 0.00 0.00 0.00 92 1007.8
20260505153227 78 129 7.0 14.8 0.00 0.00 0.00 92 1007.5
20260505152700 78 184 7.0 12.2 0.00 0.00 0.00 92 1007.5
20260505152415 78 167 6.1 12.2 0.00 0.00 0.00 92 1007.4
20260505151648 78 152 7.0 11.3 0.00 0.00 0.00 93 1007.5
20260505151146 78 184 7.0 11.3 0.00 0.00 0.00 93 1007.6
20260505150633 78 179 7.0 12.2 0.00 0.00 0.00 93 1007.6
20260505150113 78 157 7.0 12.2 0.00 0.00 0.00 93 1007.4
20260505140315 76 209 6.1 10.4 0.00 0.00 0.00 96 1007.4
20260505130155 75 181 4.3 7.8 0.00 0.00 0.00 96 1007.3
20260505124615 75 174 5.2 8.7 0.00 0.00 0.00 96 1007.1
20260505124332 75 157 4.3 7.0 0.00 0.00 0.00 96 1007.0
20260505123557 75 184 4.3 7.8 0.00 0.00 0.00 96 1007.0
20260505123037 74 169 3.5 7.8 0.00 0.00 0.00 96 1007.0
20260505122538 74 159 4.3 7.8 0.00 0.00 0.00 96 1006.9
20260505122036 74 161 4.3 7.8 0.00 0.00 0.00 96 1006.8
20260505121536 74 148 4.3 9.6 0.00 0.00 0.00 97 1006.6
20260505121245 74 147 5.2 9.6 0.00 0.00 0.00 97 1006.7
20260505120007 74 147 4.3 7.8 0.00 0.00 0.00 97 1006.6
20260505115439 73 142 4.3 7.8 0.00 0.00 0.00 97 1006.7
20260505114915 73 165 4.3 7.8 0.00 0.00 0.00 97 1006.8
20260505114403 73 156 3.5 7.8 0.00 0.00 0.00 97 1006.7